Showing default

TIANHUI 5D, 60212

Orbit data source: Space-Track

TIANHUI 5D, 60212 is a payload satellite owned by G. Cehui dili (CN) in SSO that was launched on Thu, 04 Jul 2024 UTC via a CHANG ZHENG 6A launch vehicle from the Taiyaun Space Center, China (TSC). Payload-class satellites include a variety of spacecraft equipped with specific instruments for various scientific and technological missions. These include communications satellites like Starlink; space stations such as the ISS; scientific satellites like the Hubble; Earth observation satellites from companies like Planet Labs, Umbra, and HawkEye 360; GPS; miniature CubeSats for education and research; and military/defense satellites.

Loading next visibility...
Identifier
60212, 2024-126B
Orbit
SSO
Last TLE update
6 hours ago
Origin
Manufacturer
DFH
Mission
Operational spacecraft
Bus & Motor
CAST-2000?, Unknown motor
Mass
~1,000 kg wet, ~1,000 kg dry
Launch date (UTC)
2024-07-04 (1 year ago)
Launch vehicle
CHANG ZHENG 6A
Launch site
Taiyaun Space Center, China (TSC)
Object type
Payload
Rocket body
Debris
Shape & HBR
Unknown
Radar Cross Section
Large (>1 m²)

Expand to show TLE details & history

TLE from 6 hours ago
0 TIANHUI 5D
1 60212U 24126B   25199.73627870  .00000370  00000-0  46663-4 0  9991
2 60212  97.8216 207.0903 0002123  95.0513 265.0945 14.87579703 56326
Epoch: 2025-07-18T17:40Z
TLE epoch observation values (Epoch: 2025-07-18T17:40:14.479Z)
Latitude
-0.0001°
Longitude
5.24653°
Altitude
608.662 km
Speed
7.555 km/s
True Right ascension
13h 48m 21s
True Declination
0° 00' 00"
Sunlit
Object was in daylight at epoch
Visualization orbit readout
Latitude
-82.01999°
Longitude
108.4385°
Altitude
635.303 km
Speed
7.539 km/s
Apparent Right ascension
23h 56m 07s
Apparent Declination
-63° 28' 38"
Sunlit
Object is in full shadow
Visualization observer readout
Local Sidereal Time
12:30:36
Azimuth
170.57° S
Elevation
-65.89°
Doppler factor
1
Orbital elements
Apogee altitude
604.01 km
Perigee altitude
601.046 km
Semi-major axis
6,980.665 km
Eccentricity
0.00021
Inclination
97.8216°
RAAN
207.0903°
Arg. of periapsis
95.0513°
True anomaly
265.07026°
Mean anomaly
265.0945°
Eccentric anomaly
265.08238°
Mean motion
3.72133 °/min
Orbital period
96.74 mins
BSTAR
0.000046663
Loading maneuver chart data...
Loading SW <> Apogee altitude chart data...
Loading historical data...
Loading historical data...
Loading historical data...
Loading historical data...
Loading historical data...
Loading historical data...
Loading historical data...
Other satellites on launch #126 in the year 2024 (2024-07-04 UTC)
|